Desierto de Atacama Airport
SCAT : rendu visible

Aérodrome :











RETROUVEZ-NOUS SUR...

 
LOGIN :

S'inscrire | Disclaimer

   EN    FR    IT 

 









Légende :    VFR   VFR Marginal   IFR   IFR Intensif   IFR Très Intensif
Visi : 
Plafond : 
>= 8 km
>= 3000ft
5 à 8 km
1000 à 3000 ft
1500m à 5 km
500 à 1000 ft
800 à 1500m
200 à 500 ft
< 800m
< 200 ft
Symboles :   Orages  Brouillard  Fortes neiges  Fortes précipitations  Vent > 20 kt






- Altitude de l'aérodrome : 670 ft
- Code IATA : DAT


SCAT - Desierto de Atacama

DERNIER METAR :
  • 270900Z AUTO 03008KT 9999 // ///013 12/08 Q1018

METARs EXPIRÉS :
  • 270800Z AUTO 35006KT 310V040 9999 // ///015 12/08 Q1018
  • 270700Z AUTO 33004KT 9999 // ///015 12/08 Q1018

TAF COR TAF SCAT
Valide du 27 à 06h jusqu'au 28 à 06h UTC


270459Z 2706/2806 36004KT 9999 OVC015 TN12/2706Z TX18/ 2718Z
BECMG 2715/2717 26012KT FEW025
BECMG 2802/2804 13004KT
FIR SCFZ / Amérique du Sud



MET'MAP, la Météo Aéronautique d'un coup d'oeil ! - Copyright ORBIFLY Décembre 2007 - Disclaimer

ORBIFLY MET'MAP TEAM :

Programmation & Développement : Alexandra Zaïnal
Sur une idée originale de : Baudouin d'Aumeries
Assistance à la programmation : Marc-Olivier Méhu
Soutien technique & logistique : Manuel Goepfert

Contact : metmap@orbifly.com




SOURCES & CREDITS :

   NOAA       Earth
Advisory